Wind_Speed
26 28 30 33 37 37 24 6 3 13 15 4 2 2 7 3 6 3 5 5 6 4 4 5 3 4 3 5 4 3 1 4 5 3 2 4 4 6 4 4 4 2 3 5
24 26 31 34 36 30 14 3 2 9 9 4 3 6 4 4 3 5 5 4 4 9 5 4 3 4 5 6 3 1 2 3 5 5 7 4 6 5 3 5 3 4 5 4
23 25 28 33 36 26 6 2 4 4 4 0 4 5 5 9 7 4 7 4 7 9 7 7 3 2 4 6 2 8 6 1 2 4 3 8 7 11 5 5 3 3 4 3
21 23 27 31 35 22 5 4 3 2 4 4 8 8 7 7 9 6 6 5 9 6 5 5 6 5 4 4 9 6 4 4 6 6 5 5 11 13 8 4 4 4 3 7
20 23 26 28 30 19 8 3 3 3 4 9 6 9 8 6 6 4 9 5 10 7 4 3 3 6 6 3 7 5 4 4 3 5 6 6 6 9 10 6 2 5 1 2
18 20 21 23 25 21 8 7 5 0 6 7 5 4 6 7 12 6 10 8 5 5 5 6 8 5 5 2 2 5 3 4 2 1 4 6 3 5 6 4 5 5 4 4
15 18 18 19 20 18 7 6 2 2 4 4 3 7 4 9 11 6 11 7 5 3 7 7 4 3 4 7 7 4 2 2 2 3 3 1 4 1 4 6 4 4 3 5
13 16 15 15 16 16 13 6 4 2 4 4 6 10 5 10 10 7 5 3 3 6 5 3 3 4 3 2 5 6 3 3 2 3 2 2 0 3 4 5 5 5 6 5
10 14 14 14 15 16 15 4 6 1 2 3 5 6 6 4 6 8 5 6 9 4 1 1 1 1 1 1 1 5 5 4 4 2 3 2 2 2 2 3 2 4 7 5
9 12 14 13 14 15 13 5 6 1 2 4 3 2 4 2 2 4 6 8 7 3 3 2 1 2 1 2 2 2 3 3 2 1 2 2 2 2 2 3 3 5 6 6
9 11 13 12 13 13 13 13 7 2 2 7 5 1 2 3 0 3 6 6 2 3 4 3 2 2 1 2 2 1 2 2 1 1 2 1 3 3 2 2 2 5 4 4
8 11 12 12 14 13 12 4 14 11 6 6 24 28 30 26 24 6 2 4 5 1 2 2 2 2 3 1 2 3 1 3 3 3 3 2 1 4 2 2 3 2 3 3
8 11 12 13 13 14 12 12 14 12 2 6 2 6 6 10 16 20 4 3 5 4 3 2 2 1 2 1 2 2 3 1 1 2 1 4 4 4 4 4 4 4 3 3
8 10 13 15 14 15 14 12 17 9 4 3 5 10 9 10 18 16 27 11 6 5 4 2 2 2 1 2 2 2 4 2 1 2 3 6 4 4 3 5 6 6 5 2
10 12 15 16 16 16 19 17 12 10 6 3 6 20 18 6 9 22 24 15 6 1 3 2 2 2 2 2 1 2 3 4 3 3 2 3 2 2 3 6 4 4 4 3
13 16 18 16 16 16 6 3 2 7 1 3 4 5 6 17 8 12 13 9 3 2 3 2 3 3 1 0 2 4 3 3 6 4 2 4 6 5 2 3 4 3 2 2
15 20 19 20 18 13 4 3 4 9 10 3 4 4 4 6 2 3 2 7 2 3 2 3 3 2 3 2 3 2 3 5 5 4 5 3 1 3 2 3 3 4 4 4
17 23 23 19 10 4 5 3 9 8 2 2 3 4 4 8 2 3 3 4 2 4 2 1 2 1 1 3 4 2 4 6 5 5 5 5 3 2 4 3 3 4 4 4
21 18 8 2 2 1 3 11 6 3 1 2 2 2 3 2 3 2 3 3 3 1 3 3 2 3 4 5 4 1 1 2 5 2 3 2 4 4 3 3 4 3 4 4
13 6 3 1 4 8 11 0 1 1 1 1 3 2 3 2 2 2 2 2 2 2 3 1 2 3 2 3 4 5 4 4 3 2 3 2 1 3 2 3 2 2 3 4
7 6 2 6 9 3 1 2 2 1 1 2 2 3 3 2 4 2 2 2 2 2 3 3 2 3 2 4 5 3 3 4 4 3 1 1 1 2 3 3 4 4 6 5
6 8 7 3 2 1 0 2 2 1 3 2 2 3 4 3 3 3 2 2 1 2 2 1 3 1 3 5 5 4 4 5 6 7 5 4 5 5 4 4 5 7 8 9
4 2 2 1 1 3 2 3 3 3 2 2 4 7 3 2 3 2 2 3 2 3 2 3 3 2 3 5 4 4 5 6 6 6 8 8 7 7 6 6 8 8 8 9
3 3 5 3 3 2 1 1 2 4 3 7 8 4 3 3 2 2 2 1 2 2 2 4 1 4 4 4 4 4 4 4 5 5 6 7 8 7 7 8 9 9 9 10
0 2 3 3 3 1 2 3 5 4 3 6 6 3 3 3 3 2 2 3 2 3 2 1 1 4 5 5 4 4 4 2 2 2 3 5 5 5 7 5 10 9 11 11
2 3 4 3 3 4 3 2 3 2 5 4 3 3 3 3 2 2 3 3 2 1 2 1 2 4 4 5 4 4 4 3 3 4 4 4 6 6 5 6 11 12 11 12
3 4 4 2 2 5 3 3 3 4 3 2 3 4 3 4 2 1 1 2 1 2 2 1 1 4 6 6 4 2 2 3 3 2 4 4 7 5 8 7 13 12 11 11
Wind_Direction
356 355 351 352 355 355 0 347 39 346 349 39 5 350 308 211 285 211 253 248 264 321 338 40 96 52 86 292 199 63 28 92 98 64 290 176 127 163 161 133 220 226 145 266
354 355 355 356 359 2 344 360 271 333 8 49 355 309 306 327 335 293 319 296 312 318 341 75 66 42 328 358 113 123 315 86 107 113 121 199 195 171 156 104 81 208 141 271
357 358 0 0 6 4 24 21 10 332 7 331 334 335 330 347 321 275 322 309 354 344 20 33 40 39 340 323 39 136 162 136 117 169 170 141 174 170 178 118 121 173 214 166
357 1 4 4 10 11 61 27 12 58 326 323 324 352 349 344 4 347 1 8 6 350 15 6 24 354 347 348 360 12 98 104 100 37 83 140 165 168 158 136 141 126 282 170
0 4 4 6 12 15 49 67 11 333 284 290 321 3 6 326 354 310 342 5 335 31 48 9 315 2 25 23 328 26 16 137 111 47 42 69 115 159 165 166 172 301 58 122
1 4 5 8 11 29 45 4 332 278 302 335 343 4 349 310 319 283 304 336 323 30 331 304 281 259 281 327 36 354 60 133 99 337 112 77 28 211 173 166 173 170 179 212
357 359 6 9 9 15 10 21 304 22 294 332 358 317 295 308 309 283 298 313 10 279 306 295 282 291 58 46 16 40 50 78 77 148 86 58 249 14 170 177 185 219 111 136
351 354 1 6 5 6 4 3 25 29 307 311 307 338 324 321 333 326 295 330 292 302 311 5 12 340 329 1 24 11 48 92 89 127 122 128 219 245 166 153 214 173 154 131
344 351 356 360 2 1 3 356 17 94 304 237 333 324 5 337 341 339 302 326 320 359 328 16 166 227 303 26 47 334 1 71 104 72 114 155 192 156 70 104 209 217 143 133
342 347 348 352 358 354 349 302 326 18 302 286 12 279 311 305 349 292 285 341 328 3 9 18 75 320 291 18 16 39 24 5 105 352 118 304 166 146 72 150 208 115 122 132
338 342 343 341 341 347 343 330 344 335 248 287 266 50 298 331 45 292 346 313 299 335 36 25 320 45 299 29 357 45 151 115 270 41 82 262 155 92 190 161 95 99 106 156
336 338 336 336 332 332 335 305 316 316 240 254 291 282 269 258 251 247 265 298 290 314 324 338 316 344 11 33 343 4 345 173 188 166 210 214 123 135 123 117 96 51 105 112
336 332 325 321 324 324 325 310 317 319 267 280 282 272 309 290 248 222 219 244 345 25 325 284 279 294 116 25 296 302 343 117 105 71 264 169 102 68 65 71 83 77 82 102
327 324 321 322 313 309 306 299 304 292 272 274 280 291 283 250 287 229 214 245 323 329 311 280 272 274 124 234 225 170 221 60 239 278 78 72 42 75 56 77 62 56 48 57
332 321 319 319 313 312 314 307 318 272 224 262 287 299 290 218 255 222 219 223 233 1 292 278 255 279 12 319 47 268 188 201 150 224 239 150 154 127 62 82 58 49 41 27
327 322 318 314 316 318 327 334 16 67 226 282 296 297 282 301 288 197 173 185 157 214 243 245 272 257 152 352 250 255 212 161 166 176 129 94 125 97 41 81 38 25 20 358
320 319 316 311 306 301 230 216 298 307 325 289 296 297 282 306 109 131 146 179 172 210 235 220 228 272 165 254 226 284 321 128 113 112 122 80 71 156 87 84 30 13 355 352
322 320 313 303 305 283 259 303 311 283 236 258 295 284 319 359 263 171 182 147 192 199 260 259 273 313 261 255 237 234 107 116 97 88 77 115 127 133 91 66 18 18 4 356
324 328 344 55 60 351 318 318 301 216 219 291 238 266 298 42 307 271 172 173 177 206 214 218 184 205 223 239 213 134 86 111 140 86 79 98 108 101 53 27 20 4 330 334
343 5 346 20 3 317 314 260 210 127 168 254 249 288 291 354 248 282 221 148 195 207 220 216 235 249 99 80 72 99 85 75 49 79 123 23 70 44 8 348 359 359 326 318
32 5 331 315 327 335 262 277 281 283 214 206 259 246 250 265 250 263 255 189 164 203 239 169 251 258 149 141 100 85 78 78 78 83 81 3 353 3 349 343 350 339 337 326
329 288 297 309 324 248 190 241 203 181 291 265 280 300 259 258 241 229 251 186 153 200 117 200 252 212 129 125 108 79 56 56 60 49 43 24 26 17 356 336 344 347 326 319
52 352 307 298 342 330 47 344 331 334 321 279 322 314 289 267 244 259 206 185 177 113 183 235 240 162 138 135 121 85 62 66 64 46 41 39 32 29 24 3 356 343 335 340
74 13 328 150 299 231 221 248 242 273 274 299 306 281 256 253 246 215 207 120 115 183 224 230 247 185 146 128 132 129 101 77 67 49 39 40 31 26 28 21 7 358 352 344
97 86 242 241 236 266 251 293 291 279 276 298 295 248 242 260 258 214 154 152 220 227 243 351 220 148 148 145 120 116 116 113 94 61 34 30 25 17 359 26 19 9 8 5
54 242 260 276 46 302 339 289 274 284 321 285 228 260 256 236 289 225 219 177 217 19 325 296 146 155 147 135 114 94 83 83 77 64 38 30 16 1 9 25 18 11 10 3
238 248 245 189 248 246 223 173 267 331 337 319 307 297 341 293 258 249 6 38 343 316 312 306 175 152 139 132 128 142 107 85 58 43 31 26 14 39 29 17 3 8 12 15
Height
813 807 799 792 786 776 766 766 773 759 755 765 758 757 749 744 739 734 735 734 721 711 706 709 712 712 711 708 710 714 714 718 732 737 736 736 739 751 749 769 774 785 768 762
812 807 800 793 785 780 775 774 773 759 756 769 761 756 746 739 738 734 726 724 715 707 708 714 709 710 706 703 705 708 709 724 740 742 746 742 737 741 739 747 760 786 776 747
812 807 802 795 787 779 775 777 781 774 769 769 766 760 753 744 733 734 728 722 716 714 713 711 713 711 707 702 702 705 707 719 720 738 723 728 736 738 739 744 772 755 761 740
813 809 805 800 792 783 778 786 790 789 782 776 771 766 760 755 743 735 732 727 729 729 725 718 719 714 709 704 701 701 707 723 720 717 717 718 723 731 739 759 739 742 735 734
815 812 809 802 796 791 788 795 797 790 786 776 766 770 767 762 753 750 738 738 732 732 735 735 730 724 722 719 712 709 711 725 722 729 722 722 727 727 736 737 742 740 734 736
816 812 809 806 803 797 797 799 799 797 791 781 776 778 772 768 764 749 741 737 729 736 735 732 729 728 722 718 718 719 716 723 729 754 730 736 749 731 732 733 732 735 741 734
815 813 810 808 806 804 801 799 797 796 796 791 788 776 775 768 764 756 741 736 733 733 730 727 722 721 719 719 721 719 719 720 729 756 741 757 734 727 726 731 730 733 731 732
815 813 811 809 806 805 803 803 801 800 797 793 784 780 772 767 761 753 745 736 735 732 731 732 730 734 726 723 720 721 723 727 737 749 751 737 732 731 730 732 734 729 733 733
815 813 811 809 806 807 804 803 803 799 799 791 788 786 777 774 768 762 747 738 735 733 735 736 735 749 723 730 725 720 720 729 743 752 742 733 726 726 724 725 737 725 730 735
814 812 811 810 809 807 806 802 803 802 805 790 787 790 785 778 777 774 762 757 745 736 743 745 749 735 726 736 728 724 739 738 746 743 753 737 727 726 725 734 739 727 729 731
812 811 810 811 808 806 805 805 802 801 798 791 786 781 782 781 780 778 769 760 750 746 744 746 745 741 740 735 729 730 735 748 747 740 740 746 726 728 730 729 725 725 728 731
810 810 809 807 807 806 805 801 800 799 800 789 784 778 774 775 774 778 775 768 762 750 747 749 750 740 746 744 739 735 737 738 738 738 737 730 726 727 727 727 728 730 729 732
808 808 809 807 806 805 806 800 800 799 795 786 779 774 766 764 767 769 774 764 760 757 759 756 753 747 748 747 743 739 732 731 737 733 729 729 730 730 729 729 731 732 733 733
806 805 806 804 803 800 797 794 794 795 794 787 778 768 765 762 761 764 764 764 764 765 760 752 754 745 741 743 741 741 739 731 732 733 729 734 736 735 733 734 735 735 735 736
804 803 802 800 799 797 796 793 789 790 792 783 772 766 755 753 752 755 759 762 766 770 761 751 751 746 742 743 744 744 735 734 737 736 734 734 738 738 736 737 738 739 739 738
800 800 800 798 796 795 792 791 788 787 789 780 776 761 754 750 746 748 753 758 763 765 756 751 747 742 741 749 747 728 727 727 727 732 732 734 737 740 740 739 740 740 740 740
798 798 796 795 791 792 794 792 791 788 792 785 776 769 753 749 746 750 754 756 757 759 753 750 745 741 739 742 745 727 727 728 729 730 731 737 738 739 740 741 741 740 740 739
794 793 791 789 785 789 791 789 790 788 788 791 784 774 761 754 746 746 748 751 754 750 747 745 743 739 739 740 730 729 730 732 733 735 733 736 738 739 740 741 741 741 741 741
791 787 786 786 787 789 790 787 787 785 791 786 783 783 766 757 754 746 745 743 746 746 745 741 744 742 740 730 728 727 731 733 737 737 736 737 737 740 741 741 741 742 742 741
787 787 788 787 790 787 790 784 783 783 784 786 781 773 769 764 755 746 738 740 742 743 740 738 737 731 729 736 738 738 738 738 738 737 739 741 741 741 742 742 741 742 741 740
788 792 792 789 788 787 787 787 789 788 777 779 775 771 768 761 755 747 741 739 741 739 742 740 737 730 734 738 740 740 740 740 740 740 742 742 743 742 742 741 741 741 740 739
792 795 792 790 789 788 787 791 780 780 781 772 770 766 763 756 750 745 741 737 740 735 738 739 734 732 738 739 740 741 742 741 742 743 743 744 743 743 742 742 741 741 740 739
789 793 792 792 790 790 795 804 788 786 773 772 770 767 760 750 746 741 739 735 735 737 736 731 727 738 739 741 743 744 744 744 745 745 745 745 744 743 743 743 742 741 739 738
795 801 807 797 808 792 787 788 783 783 775 773 770 767 758 747 743 737 731 732 735 734 735 728 737 738 740 742 743 744 746 747 747 747 747 746 745 745 745 744 743 741 739 738
804 803 810 805 788 790 785 785 782 778 774 771 767 761 756 744 738 735 733 733 730 726 723 729 735 738 740 742 744 746 747 748 748 747 747 747 747 747 747 746 744 742 741 738
802 798 797 792 796 797 794 792 779 776 772 767 764 757 742 732 733 728 724 729 733 728 733 736 737 739 741 742 745 746 746 748 748 749 749 749 748 747 747 746 744 743 741 739
797 791 787 793 792 790 785 781 783 775 774 770 766 753 744 744 731 728 728 727 734 740 740 739 738 739 740 744 746 748 747 748 749 750 749 749 748 747 746 746 745 743 742 740